Theta_e
286 285 285 285 284 283 283 283 283 283 283 283 283 283 282 282 282 282 281 281 280 280 280 280 279 279 279 279 278 278 277 277 277 277 277 276 276 276 276 276 276 276 276 275 275 276 276 275 275 275 275 275 275 275 275 275 275 275 275 275 274 275 274 274 273 273 275 276 275 275 275 275 274 276 275 276 276 277 277 277 278 277 277 277 278
285 285 285 284 284 283 283 283 283 283 283 282 282 282 282 282 281 281 281 281 280 280 280 279 279 279 279 278 278 277 277 277 277 277 276 276 275 275 275 275 275 275 275 275 275 275 275 275 274 274 275 275 274 274 275 274 274 274 274 274 274 274 275 273 273 272 272 274 274 275 274 275 273 276 275 275 276 277 276 277 277 278 277 277 277
286 285 284 284 283 283 283 282 282 282 282 282 282 282 282 281 281 281 280 280 280 280 279 279 279 279 278 278 277 277 277 276 276 276 276 276 275 275 275 275 275 274 274 274 274 274 274 274 274 274 274 274 274 274 274 274 274 274 274 274 273 274 274 274 272 271 271 271 273 273 274 274 274 275 276 276 276 276 275 276 276 277 277 277 276
285 285 284 283 283 283 282 282 282 282 282 282 282 281 281 281 281 281 280 279 279 279 279 279 278 278 278 277 277 277 276 276 275 276 276 275 275 275 275 274 275 275 274 274 274 274 274 273 273 273 274 273 273 273 274 274 274 274 274 274 274 273 273 274 273 272 271 270 272 272 273 273 274 276 276 277 276 275 275 276 277 276 276 276 276
285 284 284 283 283 282 282 281 281 281 282 282 281 281 281 280 280 280 280 279 279 279 279 278 278 278 277 277 276 276 276 275 275 275 275 276 275 275 274 274 274 274 274 274 274 274 273 273 273 273 273 273 273 273 273 273 274 273 273 273 273 273 273 273 273 273 271 270 271 273 274 274 275 276 276 274 274 274 275 275 275 275 275 275 275
285 284 283 283 282 282 281 281 281 281 282 281 281 281 280 280 280 280 280 279 279 279 278 278 278 277 277 277 277 276 276 275 275 275 275 275 275 275 274 274 273 274 274 274 274 274 273 273 273 273 273 272 273 273 273 273 273 273 272 273 273 273 272 272 273 272 272 271 272 272 274 273 274 275 275 274 272 273 274 274 274 274 274 273 274
284 284 283 282 282 281 281 281 281 281 281 281 281 281 280 280 280 280 280 279 279 278 278 277 278 277 277 277 276 276 275 275 275 275 274 274 274 274 274 274 274 273 273 274 273 273 273 273 273 273 272 272 272 273 273 273 272 272 272 272 273 272 272 272 272 272 272 272 272 273 273 274 274 272 274 274 273 273 272 271 271 273 273 273 272
284 284 283 283 282 282 281 281 281 281 281 281 281 281 280 280 280 280 280 279 279 278 277 277 277 277 276 276 276 276 275 275 274 274 274 274 274 274 274 274 273 273 273 273 273 273 273 273 273 273 272 272 273 273 273 272 273 272 273 272 272 271 271 271 272 272 271 271 272 272 273 273 273 274 273 273 272 272 273 271 269 270 271 272 273
284 284 283 283 283 282 282 281 281 281 281 281 281 281 280 280 280 280 280 279 279 278 278 278 277 276 276 276 276 276 275 274 274 274 274 274 274 274 274 274 273 273 273 273 273 273 273 273 273 273 273 273 274 274 274 273 272 272 273 272 272 271 271 271 271 271 271 272 271 273 272 272 272 271 270 271 270 270 271 271 270 271 271 271 272
284 284 284 283 283 283 282 281 281 281 281 281 281 281 280 280 280 280 280 279 279 278 278 278 277 276 275 275 275 274 274 274 275 277 277 275 275 274 274 274 273 273 273 272 272 272 272 272 272 273 274 274 275 275 275 275 275 274 272 273 271 271 270 270 271 271 272 271 271 272 270 270 270 270 270 271 272 272 270 270 269 270 270 270 271
284 284 284 284 284 283 282 281 281 281 281 281 281 281 280 280 280 280 280 279 278 278 278 277 277 276 275 275 274 274 274 274 277 280 280 279 275 275 274 274 274 273 273 272 272 272 272 272 272 273 274 274 275 276 277 277 277 277 276 275 274 272 271 271 272 272 272 272 272 271 271 270 270 271 271 271 271 270 270 270 269 269 268 267 266
284 284 285 284 283 283 282 282 281 281 281 281 281 280 280 280 280 280 279 278 278 278 277 277 276 276 275 275 274 274 274 276 279 281 281 281 278 275 274 273 273 273 273 272 272 272 271 271 272 272 273 273 273 274 275 277 277 277 277 278 277 278 277 274 273 273 273 272 271 271 270 270 270 271 271 271 270 270 270 270 269 269 268 267 267
285 285 284 284 283 283 283 282 281 281 281 281 281 280 280 280 279 279 278 279 278 277 277 277 276 276 275 275 274 275 274 278 280 282 282 282 281 276 274 274 273 273 273 272 272 272 271 271 270 270 270 272 272 272 271 272 274 276 277 277 277 278 278 279 279 276 275 273 271 270 271 271 270 271 272 271 272 270 270 269 269 269 268 267 267
285 285 284 284 284 283 282 282 282 281 281 281 280 280 280 279 279 279 278 278 277 277 277 277 277 276 275 275 274 274 274 277 281 282 283 283 282 278 274 273 273 273 272 272 271 272 271 271 270 270 270 271 272 272 271 271 271 271 271 272 273 274 276 277 277 277 277 275 273 271 272 273 271 272 272 273 271 269 269 269 269 268 268 267 268
284 285 284 284 284 283 282 282 282 281 281 280 280 280 279 279 279 279 278 278 277 277 277 277 276 275 275 275 275 274 274 278 281 282 283 283 283 281 273 273 273 273 273 272 272 271 271 271 271 270 270 270 271 271 271 270 269 268 268 269 271 273 274 274 275 275 275 274 274 273 273 274 273 273 273 274 273 272 272 270 270 268 268 268 268
284 284 284 284 283 283 283 282 282 281 280 279 279 279 279 279 279 278 278 277 277 277 276 276 275 274 274 274 274 273 274 279 281 282 283 284 284 281 274 274 273 273 272 272 272 272 271 271 270 270 270 270 271 274 273 270 268 266 267 269 271 273 274 276 277 277 276 275 275 274 274 275 276 275 275 274 273 273 272 271 269 268 266 264 263
283 283 283 283 283 283 283 282 281 281 280 279 279 279 279 279 279 278 277 277 276 276 275 275 275 274 273 273 273 273 273 277 281 282 283 284 283 280 275 275 274 273 273 273 272 271 271 271 271 270 269 269 271 275 276 275 270 268 269 270 271 272 273 275 277 278 278 278 278 278 277 277 276 276 275 275 274 272 270 268 266 266 264 262 263
283 283 283 283 283 283 283 282 282 281 280 279 279 280 280 279 279 277 277 276 276 275 275 274 274 274 273 272 273 273 273 275 280 281 282 284 283 279 276 276 275 274 273 272 272 272 271 271 271 270 269 269 272 275 276 276 273 272 271 271 271 272 273 275 274 275 277 277 276 276 275 274 273 273 272 272 272 272 269 265 265 265 263 263 262
283 283 283 284 283 283 283 282 282 281 280 280 280 280 279 279 278 276 277 277 276 275 274 274 273 273 273 273 273 273 273 274 279 281 282 283 283 279 276 275 274 274 273 272 272 270 270 271 272 271 270 270 274 275 277 276 273 273 272 272 271 271 272 273 273 272 272 271 271 270 270 269 267 266 267 269 270 270 269 267 266 265 263 263 263
284 284 284 284 283 283 283 282 282 281 281 280 280 280 279 277 276 275 275 276 275 275 274 274 273 272 271 271 272 273 272 272 275 280 281 282 284 280 275 275 273 273 273 272 270 270 270 270 271 275 275 275 274 276 277 278 274 273 273 272 271 271 274 273 273 272 271 271 269 266 265 264 264 264 265 265 266 266 268 268 268 267 265 264 263
284 283 283 283 282 282 282 282 282 282 281 280 280 278 278 278 276 275 274 274 274 273 273 272 272 272 271 271 271 272 272 271 272 278 280 282 283 282 275 275 275 274 273 271 271 269 269 270 269 272 276 277 277 277 277 278 278 275 274 273 274 275 275 272 272 274 269 267 265 264 263 263 262 263 263 265 265 266 266 268 268 268 266 264 263
283 282 282 282 282 282 282 282 282 281 280 279 278 277 277 277 276 275 274 274 273 272 272 271 272 272 271 270 270 270 271 273 270 276 279 281 282 284 277 275 275 274 273 272 270 270 270 270 270 271 274 276 277 278 279 279 279 277 277 278 279 278 276 271 269 266 264 264 263 262 262 262 261 261 262 263 264 264 266 266 267 268 268 268 265
282 282 282 282 281 281 281 280 280 280 279 278 278 277 275 275 274 274 273 273 272 272 272 271 271 271 270 270 269 269 268 269 274 271 276 279 281 282 283 279 279 275 274 273 272 270 270 270 270 271 273 275 277 278 279 279 279 278 279 279 279 279 274 266 265 264 263 262 261 262 263 262 261 261 261 262 263 265 265 266 267 267 267 267 267
282 281 281 281 280 280 279 279 279 279 278 278 277 276 274 274 274 273 273 273 272 272 272 270 270 270 270 270 268 267 267 266 271 274 273 277 279 281 282 283 281 277 275 274 274 273 270 270 270 272 274 276 277 278 279 279 278 279 280 279 279 275 266 265 264 263 262 261 262 262 262 262 261 261 261 262 263 264 264 265 265 266 266 265 266
281 280 280 279 279 279 278 278 278 278 277 278 277 276 274 273 273 271 272 272 272 272 271 270 270 270 270 270 270 268 266 265 265 270 274 275 277 279 280 281 283 282 277 275 275 274 273 273 273 275 276 276 277 278 278 278 279 279 279 279 276 267 266 265 264 262 262 263 263 262 261 262 262 263 263 264 264 263 263 263 263 262 262 262 262
279 279 279 279 278 277 277 276 276 276 276 277 277 277 275 273 274 271 271 272 272 271 271 269 269 269 270 270 270 269 266 264 265 265 269 272 274 276 278 279 280 281 281 278 277 277 276 276 276 277 277 276 275 275 275 275 277 278 278 276 267 267 265 265 262 263 263 263 262 261 262 262 262 262 263 262 261 261 261 261 262 262 262 262 261
278 278 277 277 276 276 276 275 274 274 274 275 275 275 274 273 273 271 271 271 271 270 271 269 269 269 269 270 269 267 266 264 264 264 264 265 267 270 273 275 277 279 279 279 278 276 275 275 276 277 277 277 276 276 276 276 275 275 271 267 265 264 263 264 265 264 264 262 262 261 261 261 261 261 261 260 260 260 261 261 261 261 261 261 260
277 276 275 274 274 275 275 270 272 273 273 274 273 272 271 272 273 272 271 271 271 270 270 269 269 269 269 269 268 266 266 265 264 263 264 264 265 266 267 269 270 272 274 276 277 275 274 276 277 276 276 275 275 275 274 272 271 269 266 265 264 263 264 265 264 262 262 263 262 261 260 260 259 260 260 260 260 260 261 261 261 260 261 260 259
274 272 271 272 271 271 273 272 273 272 271 270 270 271 272 272 273 272 270 272 273 272 271 271 270 270 270 269 268 267 267 266 266 269 266 268 265 264 265 266 268 269 272 275 274 274 274 274 273 273 273 272 272 272 270 268 268 267 266 263 261 261 261 262 262 262 262 261 260 260 259 260 260 260 260 259 259 260 260 261 261 260 261 260 259
272 270 270 271 269 270 270 270 269 270 270 269 268 264 267 272 271 272 269 271 274 276 275 271 270 269 269 269 269 270 270 270 272 273 273 273 274 273 271 271 271 270 271 275 275 273 272 271 271 271 271 270 270 270 268 266 267 265 263 265 262 260 260 261 261 261 261 260 260 260 260 260 259 260 259 258 259 260 261 262 260 260 259 258 258
271 269 269 269 269 269 268 267 266 267 267 268 268 268 265 266 273 274 273 272 274 276 277 277 276 274 270 267 268 274 275 275 275 275 275 276 276 276 276 275 275 274 274 272 272 272 270 270 270 271 271 271 270 270 269 267 266 266 266 264 263 262 263 261 261 260 259 259 259 259 259 259 259 259 258 258 259 260 259 259 259 259 258 258 258
272 270 269 267 267 267 267 267 266 265 265 265 266 267 267 266 265 271 275 274 275 275 276 277 277 277 276 273 267 265 271 275 276 276 276 276 277 277 277 277 277 277 276 276 270 269 271 270 270 269 270 269 270 269 269 268 267 266 266 265 263 261 261 262 262 261 260 259 259 259 259 259 259 259 258 259 259 259 259 258 258 258 258 258 257
271 268 267 266 266 265 265 265 265 266 264 263 263 265 266 266 267 266 268 274 275 275 275 276 277 277 277 277 277 273 271 272 274 275 276 277 277 277 277 278 278 278 277 274 271 269 269 270 270 270 270 269 270 269 269 269 268 267 267 267 266 264 262 263 263 261 260 260 259 259 259 259 259 258 258 259 259 258 258 258 258 257 257 257 257
270 269 267 266 266 265 265 265 265 264 264 264 264 265 265 266 266 266 264 263 266 272 275 276 276 276 277 277 277 277 277 276 276 275 275 276 277 277 277 276 277 278 277 273 272 271 270 269 269 269 269 270 270 269 268 268 268 268 267 266 265 265 264 262 261 261 259 260 260 259 259 259 259 258 258 257 258 258 257 257 257 256 256 257 257
267 265 264 265 266 265 265 265 264 263 262 262 263 263 263 262 263 263 263 265 265 265 264 269 274 276 274 275 276 277 277 277 277 276 276 275 276 277 277 274 273 274 275 275 273 272 271 271 270 270 270 269 269 269 268 268 268 267 266 265 264 263 261 260 260 260 259 259 258 259 259 258 258 258 257 257 257 256 257 257 257 257 256 256 257
266 265 265 264 264 264 264 263 263 262 263 263 263 263 262 262 262 262 261 261 261 261 261 262 264 270 274 275 276 276 276 277 277 277 276 276 276 276 273 272 272 272 272 273 272 272 272 271 271 271 270 270 270 269 269 268 267 267 266 264 262 262 261 260 259 258 258 258 257 257 258 257 257 257 256 256 256 256 257 257 256 256 256 256 257
266 265 265 264 263 263 263 262 262 262 264 262 262 262 262 261 261 260 260 259 259 259 259 257 260 263 268 267 271 274 276 276 276 276 276 276 276 274 272 272 272 271 271 271 271 271 271 269 269 269 269 269 268 268 267 266 266 264 264 263 262 261 260 260 260 258 258 257 257 256 256 257 256 255 256 256 256 256 256 256 256 256 257 257 258
266 265 264 263 262 262 262 261 262 264 262 262 261 261 260 260 259 259 260 258 259 259 259 258 263 262 264 265 266 266 268 272 273 273 271 270 267 266 266 265 266 266 266 265 265 265 266 266 266 266 266 266 265 265 264 264 264 263 262 262 261 260 261 260 260 258 256 256 256 256 256 256 256 256 256 256 256 256 257 257 257 256 256 256 257
263 264 264 264 264 262 262 261 262 262 261 260 260 260 260 259 259 258 258 257 258 257 257 255 257 261 263 262 263 263 267 267 267 267 265 264 264 264 263 264 264 264 264 264 264 264 264 264 264 264 264 264 264 264 263 263 262 261 261 259 258 256 257 258 257 257 256 256 256 256 256 256 256 256 256 255 255 256 256 256 256 256 255 256 256
263 263 264 265 264 263 261 261 261 261 260 260 259 259 259 259 259 258 257 257 255 256 255 256 257 257 258 257 259 260 264 263 262 262 262 263 262 262 262 261 262 262 262 262 262 261 261 262 262 262 262 262 262 262 261 261 261 260 258 257 257 256 256 255 256 256 256 256 256 256 256 256 256 256 255 255 255 256 256 255 256 256 256 255 256
263 263 263 265 263 262 260 260 260 260 259 259 259 259 259 258 257 257 256 256 256 256 255 254 253 254 257 262 267 265 259 258 257 256 257 258 259 259 260 260 259 259 259 258 258 258 257 258 257 257 257 257 256 256 256 256 255 255 254 254 254 254 254 253 253 254 254 254 254 255 255 255 255 255 254 255 256 256 256 256 256 256 256 256 256
262 262 263 262 262 260 260 259 258 259 259 258 258 258 258 257 256 256 256 255 256 255 254 253 253 253 260 266 267 268 260 257 256 255 255 256 257 258 258 259 258 257 256 256 256 256 255 254 253 253 253 254 254 254 253 252 252 253 253 253 253 253 253 254 253 253 253 254 254 254 254 255 255 255 255 256 256 256 256 256 256 256 255 255 255
261 261 261 260 259 259 259 258 258 257 256 257 256 257 257 256 255 256 255 255 254 254 254 253 252 252 255 264 263 263 259 259 260 259 258 258 258 257 257 256 255 254 253 252 251 252 252 253 253 253 254 254 254 254 254 254 254 253 253 253 253 252 253 253 253 253 254 253 254 254 254 254 255 256 255 255 256 256 256 255 255 255 255 255 255
259 259 258 258 257 257 256 257 257 256 255 256 256 255 255 255 254 254 254 253 253 253 252 252 252 251 251 253 255 253 250 250 249 250 251 253 253 254 253 251 249 249 249 249 249 249 250 250 252 252 252 252 252 251 252 253 253 253 253 253 253 253 253 253 253 253 253 253 254 254 254 254 254 255 255 255 255 255 255 255 254 254 254 254 254
258 258 258 257 256 256 254 254 255 256 256 256 254 253 254 253 253 252 253 252 252 251 251 251 251 251 251 249 248 249 248 248 250 250 250 249 249 250 249 248 248 250 251 251 251 249 249 250 250 250 251 252 251 251 251 252 251 252 253 253 253 253 254 254 254 253 254 253 254 254 254 254 253 254 254 254 254 254 254 254 254 254 254 254 254
257 257 256 256 255 254 254 254 254 254 255 254 254 252 251 251 251 252 252 251 251 251 250 250 250 250 250 248 248 250 248 245 247 248 249 248 248 249 248 247 247 247 248 249 249 249 250 250 250 251 251 252 251 251 251 250 251 251 251 252 253 254 254 253 252 252 253 252 253 253 253 253 253 254 254 254 254 254 254 254 254 254 254 254 254
255 256 255 255 255 254 253 253 253 252 252 252 252 252 251 250 250 251 251 251 250 251 250 249 249 249 248 248 248 247 248 249 247 248 247 247 246 247 246 246 247 247 248 248 247 249 249 249 250 250 250 250 250 250 250 251 250 251 251 252 252 252 252 252 252 252 252 252 252 252 253 253 253 253 254 254 254 254 254 254 254 253 253 254 253
255 255 254 254 254 254 253 253 254 253 252 252 251 251 250 250 250 250 249 250 249 249 248 247 246 246 248 247 248 247 247 247 248 249 248 248 247 247 246 245 246 248 248 248 248 248 248 248 248 248 249 249 250 251 251 251 250 250 250 251 251 251 252 252 252 251 251 251 251 251 252 252 252 252 253 253 253 253 253 253 254 254 254 254 254
254 254 254 254 253 254 253 253 252 253 252 251 251 251 250 249 249 248 248 248 248 248 247 247 245 245 245 246 247 247 247 248 247 247 247 247 247 246 246 245 247 248 248 249 249 249 248 248 248 249 248 249 249 250 250 250 251 251 251 251 251 252 252 253 253 252 252 252 251 251 251 251 251 251 252 252 253 253 253 253 253 253 253 253 253
253 253 253 253 252 251 251 251 251 250 250 250 251 250 249 249 248 247 246 246 246 246 244 245 246 247 247 247 247 247 247 247 247 247 247 246 246 246 246 246 246 246 247 248 248 249 248 246 247 247 248 248 249 249 250 250 250 251 250 251 252 253 253 253 254 254 253 252 251 251 251 251 250 251 251 252 252 252 252 253 253 253 253 252 252
252 253 252 252 251 250 250 250 249 249 249 249 249 249 249 248 248 247 246 246 247 247 246 246 246 245 246 247 247 246 247 246 247 247 246 247 246 246 247 247 247 246 246 247 248 248 247 247 248 248 248 249 249 249 250 250 250 250 251 253 253 254 254 254 254 254 254 254 251 251 251 250 250 250 250 251 251 251 252 252 252 252 252 253 253
Wind_Speed
9 10 9 8 10 11 10 10 10 8 10 9 9 10 8 8 8 7 7 7 8 8 8 8 8 8 8 7 7 7 6 6 5 5 5 6 5 6 7 6 7 5 5 5 3 4 4 5 4 3 4 4 3 3 3 3 2 1 2 2 2 2 3 3 4 6 2 2 2 5 6 7 8 7 8 8 8 7 7 8 9 9 9 9 9
10 9 8 9 10 10 10 9 10 10 11 10 10 9 8 8 9 9 8 7 8 8 9 8 7 8 8 8 7 7 6 6 6 5 6 7 6 5 6 7 7 6 5 5 4 3 4 5 4 3 3 4 4 4 3 3 2 2 2 3 2 2 2 2 3 3 6 3 4 4 5 6 8 7 8 9 8 8 8 8 7 8 9 9 9
11 11 11 10 10 10 10 11 10 11 12 10 10 9 8 8 7 9 8 8 6 6 8 8 8 8 8 7 7 7 6 6 6 6 6 7 8 7 6 7 7 7 6 6 6 5 5 4 4 4 3 3 4 3 3 3 2 3 3 3 2 2 1 1 1 3 5 6 4 6 6 7 7 8 8 7 8 8 9 8 7 7 7 9 9
10 10 10 11 10 11 10 9 11 11 10 8 11 9 8 8 8 8 7 7 7 6 6 8 8 8 8 7 7 7 7 6 6 6 7 7 8 8 7 6 6 6 6 7 6 5 5 5 5 4 4 4 4 3 3 3 4 3 3 2 2 2 1 1 2 2 4 7 5 6 7 7 7 7 7 7 8 9 8 7 6 7 9 9 9
11 11 11 11 9 10 10 10 10 11 10 9 10 10 9 8 7 8 8 8 7 8 7 6 7 7 7 8 8 8 8 8 7 6 6 5 6 7 7 6 6 6 6 6 6 6 5 5 5 5 5 4 3 4 4 5 4 4 3 2 2 1 1 1 1 2 4 6 8 6 6 7 7 7 7 9 10 8 8 7 7 8 8 8 7
11 11 10 10 9 11 10 9 10 11 10 9 10 9 9 8 8 7 8 9 8 7 7 6 7 8 7 7 7 7 7 6 6 7 7 6 6 6 6 6 6 6 6 6 6 5 5 5 6 6 6 5 5 4 5 6 4 4 3 2 2 1 1 1 1 3 4 6 7 9 7 8 8 6 6 9 10 10 8 7 7 7 8 9 8
11 12 11 12 10 11 10 10 9 9 9 8 8 8 8 8 8 8 8 8 9 9 7 7 6 7 7 7 7 8 7 7 7 6 7 6 7 7 7 6 6 5 5 6 6 6 6 6 6 6 6 5 5 6 6 5 4 4 4 3 2 2 2 2 2 3 4 6 8 8 9 7 7 8 8 9 9 8 10 11 8 4 6 9 12
13 13 11 11 12 11 10 10 10 9 8 8 8 8 8 8 8 7 8 9 8 9 9 8 7 6 6 7 6 6 7 7 7 6 6 7 7 6 6 7 7 6 6 6 6 6 6 6 6 6 7 6 6 5 6 5 4 4 3 3 3 3 3 2 3 4 5 6 7 8 7 7 8 7 8 8 7 6 6 9 12 13 11 9 9
13 13 13 12 11 11 10 10 9 9 10 9 9 9 9 8 7 7 8 8 8 9 7 7 8 8 7 7 7 7 7 7 6 7 7 7 6 7 6 7 7 7 6 6 6 6 6 6 6 6 7 8 10 8 7 6 4 4 4 4 4 4 3 3 3 5 5 6 7 7 7 7 8 9 9 7 8 9 9 9 10 12 12 13 10
14 13 13 13 12 11 10 10 10 9 10 10 10 10 9 10 10 10 10 9 9 9 7 7 7 8 8 7 7 6 6 5 9 14 11 7 7 5 5 5 6 6 7 7 6 6 6 6 6 11 12 12 12 12 11 10 10 6 5 5 4 4 4 4 5 5 5 5 6 7 7 8 8 8 8 8 8 9 10 10 11 12 12 13 10
13 13 13 12 12 12 12 12 10 11 12 11 11 11 11 10 10 10 10 9 10 9 7 8 8 7 8 8 8 6 6 6 14 16 16 14 8 7 6 6 5 6 6 7 7 8 7 7 6 10 11 11 10 12 12 12 12 12 11 10 9 7 5 6 6 6 5 5 7 5 6 8 10 8 8 7 7 8 9 9 10 11 11 13 15
13 14 12 12 12 12 12 12 12 12 11 12 11 10 10 10 10 10 9 9 9 9 10 9 8 7 6 7 7 7 7 11 16 17 16 16 12 7 6 5 5 5 5 6 5 6 8 7 7 6 6 7 5 6 9 11 12 12 13 13 13 14 13 9 6 6 7 8 4 4 6 8 11 8 7 7 8 8 9 9 9 10 12 11 10
13 12 11 12 12 12 12 12 13 11 12 11 11 10 11 11 10 11 13 11 9 10 11 10 11 9 8 9 9 8 7 13 17 17 16 16 16 11 4 6 6 6 6 6 6 6 6 7 7 6 5 10 8 7 5 5 7 10 12 13 14 14 13 14 14 9 7 7 4 5 4 7 9 7 6 8 8 9 9 9 9 10 10 11 11
13 13 12 12 12 11 12 11 12 12 11 10 10 11 12 13 11 8 7 7 10 10 9 12 10 10 10 9 8 7 7 12 17 17 17 17 16 12 6 6 6 6 6 6 5 6 6 7 7 7 6 7 7 7 6 6 5 5 5 6 5 7 10 12 12 13 11 9 5 6 6 7 8 7 7 8 8 9 9 9 10 10 9 11 14
13 13 13 12 11 10 11 11 11 10 10 10 10 10 10 8 9 10 10 11 12 12 12 11 10 8 10 10 9 10 8 13 16 18 17 17 16 12 6 5 5 6 6 6 6 6 6 5 5 5 6 7 6 8 7 6 4 4 5 6 5 6 6 6 6 7 8 7 6 8 8 8 7 8 7 7 8 9 8 10 9 7 9 11 10
13 12 12 12 12 12 12 11 10 10 11 10 11 11 12 12 12 9 8 7 6 5 5 6 8 10 9 9 9 10 8 15 17 17 18 17 17 9 6 7 7 6 6 6 6 6 6 6 6 6 6 6 9 14 11 6 5 7 7 6 5 7 8 8 12 12 9 7 7 7 7 7 8 7 8 9 8 8 8 6 4 7 9 9 9
14 13 13 13 13 14 13 13 12 12 12 12 12 12 11 10 9 7 9 9 9 9 10 10 9 9 9 9 10 9 8 13 17 17 17 18 14 7 8 7 6 9 7 6 6 6 6 7 7 6 6 7 10 15 15 13 7 8 7 7 8 9 9 8 12 14 15 15 16 15 13 11 9 10 12 14 11 9 8 7 8 6 8 10 9
13 13 13 13 13 12 12 13 13 12 11 13 14 13 11 9 10 9 11 11 11 11 8 7 6 7 9 10 10 9 8 10 16 17 18 18 14 8 8 8 8 8 8 6 6 6 8 12 10 8 8 8 13 16 16 13 10 9 9 10 11 10 9 8 5 6 12 11 9 6 5 5 7 8 10 11 11 8 5 7 6 4 7 7 11
13 15 15 13 12 12 12 12 12 13 14 13 12 12 12 12 10 8 9 8 8 6 6 7 6 6 7 8 8 9 8 9 15 16 18 18 15 7 8 8 8 9 9 8 7 6 6 9 14 12 10 10 15 17 17 15 9 8 9 10 11 12 10 8 7 6 5 4 3 2 4 2 3 3 5 9 9 8 5 5 3 5 6 8 9
14 10 9 10 10 10 10 12 11 12 13 11 10 11 8 7 8 9 8 7 7 7 7 7 8 7 6 7 8 9 8 6 8 16 16 17 19 8 6 8 9 10 10 9 8 6 7 7 10 17 17 16 17 18 18 19 12 9 9 11 11 13 7 7 8 7 7 6 4 1 3 2 3 3 4 4 4 4 5 5 6 5 6 7 8
10 10 10 9 10 11 10 12 13 11 11 11 10 8 8 9 8 8 9 6 6 6 8 7 7 7 6 7 7 7 7 7 7 15 16 18 19 14 7 9 8 8 9 9 8 7 6 7 6 13 18 18 18 19 20 20 18 11 11 11 12 10 8 7 8 11 5 4 2 1 3 2 3 2 3 3 3 3 4 5 6 6 6 7 8
9 9 10 10 10 10 10 9 10 10 8 8 9 8 6 7 8 8 7 7 8 9 7 6 7 6 5 6 6 7 5 8 7 12 17 17 17 19 9 10 9 8 8 10 6 7 7 6 6 10 17 19 19 20 21 20 21 13 12 16 18 18 11 5 3 4 3 2 1 1 4 3 3 2 2 3 3 4 4 5 6 7 7 7 8
10 10 10 10 10 11 10 11 10 8 9 9 10 9 7 8 7 7 8 8 9 9 8 7 6 6 5 5 4 5 5 6 11 9 14 17 18 19 18 11 15 10 11 12 12 8 3 6 7 11 15 18 20 22 22 22 18 14 19 19 18 20 7 5 5 5 3 2 1 3 4 3 3 3 3 3 3 4 4 5 6 7 7 8 9
10 10 10 10 10 9 9 9 9 8 9 9 8 9 8 8 7 7 8 8 7 7 6 6 5 6 8 7 5 4 4 4 8 12 12 17 18 19 21 19 17 12 11 12 9 7 5 7 7 14 17 19 21 21 21 20 15 19 20 17 18 8 7 4 4 4 3 3 3 3 4 4 3 4 4 3 3 4 5 6 6 7 7 7 8
10 10 9 9 9 8 8 8 8 8 8 9 9 8 8 8 8 5 7 6 6 7 7 6 8 8 7 8 6 5 5 5 5 10 14 15 18 19 19 20 22 22 13 11 10 9 10 14 15 17 19 20 20 21 19 20 21 20 19 19 11 8 5 6 4 4 3 4 4 4 4 5 4 4 3 4 5 6 6 6 4 4 4 5 7
11 10 9 9 9 9 9 7 7 7 8 7 8 8 10 9 8 7 6 7 7 7 7 7 7 7 8 7 7 6 5 5 7 6 8 9 11 17 20 21 21 22 20 13 16 18 18 18 19 20 20 16 12 10 9 9 16 18 19 8 8 7 6 5 5 4 4 4 4 5 5 3 3 3 4 5 5 6 4 4 5 5 3 4 6
10 9 9 8 7 9 9 8 7 6 6 5 5 6 6 7 7 7 7 7 7 6 6 7 7 7 8 8 6 5 5 5 5 5 4 5 7 9 10 12 16 17 14 11 11 11 14 14 12 15 13 17 17 15 14 10 10 9 3 5 5 6 5 4 4 4 5 4 4 3 3 3 3 4 5 5 6 4 3 5 5 7 6 6 6
10 9 9 8 7 7 7 9 9 6 6 7 7 6 5 7 8 9 10 10 9 8 8 8 9 9 9 7 6 5 6 5 5 7 8 9 6 5 6 7 7 5 8 9 7 7 8 10 13 9 9 9 9 8 7 6 6 5 4 4 4 2 3 4 3 2 3 4 2 2 2 3 5 4 3 4 5 4 3 3 5 6 6 5 5
8 8 7 7 7 6 6 7 6 7 6 5 4 4 8 8 8 6 4 6 8 10 9 9 8 8 7 7 7 7 5 7 10 10 9 11 10 8 8 7 5 5 9 12 7 6 4 6 6 8 7 9 8 8 5 5 6 6 6 4 3 4 4 3 4 4 5 3 4 4 5 3 4 3 4 4 4 4 2 4 5 5 5 4 6
9 7 7 6 6 6 6 6 6 6 7 6 6 1 3 2 3 5 5 5 9 8 8 8 7 6 7 7 7 9 8 7 6 12 16 17 18 18 15 14 14 11 12 18 12 8 9 6 6 7 6 5 6 7 6 5 6 5 5 5 4 5 4 4 4 4 3 4 4 4 5 4 4 3 3 4 4 4 3 5 5 4 4 5 7
7 7 7 6 7 7 7 6 5 5 5 6 6 6 3 1 2 5 5 6 8 11 12 11 9 10 8 6 6 11 11 7 8 10 13 15 17 17 17 17 17 16 16 10 10 11 8 8 7 5 6 6 7 8 7 7 7 6 6 6 3 4 4 4 5 3 3 3 4 4 4 4 4 3 4 4 4 4 2 2 3 4 5 6 7
10 8 7 6 7 7 6 6 6 6 5 4 6 6 6 4 1 3 7 8 9 10 10 11 11 11 12 9 5 3 7 10 11 12 12 12 13 14 15 16 16 16 15 16 7 6 7 7 8 8 7 8 8 6 7 7 6 6 6 6 6 5 6 6 5 4 4 4 5 5 5 6 5 5 4 5 5 6 4 4 3 4 6 6 7
10 8 7 7 7 7 7 7 6 6 7 7 6 5 7 6 6 4 3 6 9 9 10 11 11 12 11 11 11 9 7 7 9 10 11 12 13 12 13 14 14 14 14 11 10 9 7 7 7 6 7 7 6 6 7 6 6 6 7 8 8 6 6 5 4 5 5 6 5 5 5 5 5 5 6 6 5 6 5 6 5 5 6 6 7
9 10 9 9 9 7 7 6 7 6 5 5 6 6 5 6 5 5 5 2 2 5 8 10 9 8 9 10 10 10 10 9 8 8 8 10 11 11 11 8 11 14 13 8 8 6 7 7 7 7 6 6 6 6 7 8 8 8 8 9 5 2 4 4 4 5 4 5 5 5 5 5 4 5 6 5 6 6 6 6 5 5 6 7 7
7 7 10 8 6 7 6 6 6 6 5 5 5 5 5 4 4 5 6 7 6 5 1 2 5 8 6 4 6 8 9 9 9 8 7 7 8 10 9 6 6 6 8 7 7 8 7 8 8 8 8 8 7 7 7 8 8 8 9 6 5 5 3 4 4 4 4 4 4 5 6 6 6 5 6 6 5 5 6 6 6 5 6 6 6
7 7 6 6 6 5 5 5 5 6 6 6 5 5 5 5 5 4 4 3 3 2 1 1 1 4 5 4 6 6 6 7 8 9 7 6 7 8 6 5 3 5 6 6 5 4 4 5 6 7 6 7 7 7 8 7 7 8 6 6 5 5 5 4 4 4 4 4 5 5 4 5 6 5 4 5 5 6 7 5 4 5 6 6 6
7 6 6 5 5 5 5 5 5 4 5 5 6 5 5 4 5 3 4 3 2 1 2 1 2 2 3 4 6 3 4 1 1 3 0 2 3 2 2 3 4 3 3 4 4 4 3 1 1 2 2 4 4 4 4 5 4 4 4 5 5 5 5 5 5 5 4 4 4 5 5 4 4 4 6 6 6 6 7 6 6 6 7 8 8
6 6 6 6 6 6 6 6 5 6 5 5 4 5 5 4 3 3 5 3 2 2 1 0 0 2 2 0 5 3 2 4 4 4 7 7 6 4 3 3 3 1 1 1 1 2 1 1 1 0 0 0 1 1 2 3 3 4 4 5 5 5 5 5 5 5 5 4 4 4 4 4 4 4 5 5 6 7 7 7 6 6 7 8 7
5 7 9 9 6 6 6 6 6 6 5 5 5 5 6 5 4 4 3 3 3 2 2 1 1 2 1 1 1 3 2 0 1 1 1 2 2 2 2 2 2 1 1 1 1 1 1 1 1 1 0 0 1 1 2 2 2 3 3 3 4 2 3 4 4 4 3 4 4 3 4 4 4 4 5 6 6 7 7 6 7 6 6 7 8
6 5 6 8 5 5 5 6 6 5 5 6 5 5 5 5 5 4 4 5 3 3 3 3 2 1 0 1 1 1 1 0 0 0 1 1 2 2 2 2 2 1 1 2 2 2 2 2 1 1 1 0 1 1 1 2 2 2 2 2 3 4 5 4 4 4 4 3 3 3 3 4 4 3 4 5 6 6 6 7 7 7 6 7 7
5 6 5 5 6 6 5 6 5 5 5 5 5 5 5 5 5 5 5 4 3 3 2 3 2 0 1 2 4 5 4 3 2 2 1 0 1 2 1 1 1 1 0 0 2 1 1 2 2 2 2 2 1 1 1 1 2 2 3 3 2 3 3 3 3 3 4 3 3 3 3 4 3 4 6 6 6 6 6 6 6 6 6 6 7
6 6 6 5 6 6 6 6 6 6 5 6 6 6 6 6 5 5 6 4 5 5 4 2 2 1 2 4 3 5 6 3 3 3 2 1 1 1 1 1 1 1 1 2 2 2 1 1 2 2 3 3 2 2 1 2 3 3 3 3 3 3 3 4 4 4 4 3 4 4 4 4 4 4 5 5 5 6 5 5 6 6 6 6 6
6 6 6 6 6 6 7 6 6 6 6 6 5 5 6 6 5 6 5 5 4 5 4 4 1 1 1 3 5 7 4 3 2 2 2 1 1 1 1 1 1 1 1 1 1 2 2 2 3 3 3 3 3 2 3 3 3 3 3 3 3 4 4 4 3 4 3 3 4 5 4 4 5 6 5 5 5 5 5 5 6 5 6 5 6
6 6 6 6 6 6 6 6 6 6 6 6 6 7 6 6 5 5 6 5 4 4 5 4 5 3 1 2 3 4 3 2 2 1 1 1 1 2 1 1 1 1 1 1 1 1 2 2 3 3 3 3 3 3 3 3 3 3 4 4 4 5 5 4 5 4 3 3 3 3 3 4 5 6 6 6 5 5 6 5 5 6 6 6 6
7 7 7 7 6 6 6 5 7 7 7 7 6 5 6 6 6 6 6 6 5 4 4 4 4 4 4 2 3 3 3 3 2 2 2 2 2 2 2 2 1 2 2 2 1 1 2 3 3 3 4 3 3 3 3 3 3 3 3 4 4 5 6 5 4 3 4 4 3 3 3 3 4 6 6 6 5 5 6 6 6 5 6 6 6
7 7 7 7 7 7 7 6 7 7 7 7 7 6 6 6 6 6 6 6 6 5 5 4 4 4 4 3 2 4 2 2 2 2 3 1 2 3 2 2 2 2 3 3 2 3 3 3 3 4 5 4 3 3 4 3 4 4 4 4 6 6 4 3 3 3 4 4 4 4 3 3 4 5 6 5 5 6 6 5 5 6 6 6 7
7 7 7 7 7 7 7 7 6 6 6 6 6 7 6 6 6 5 6 7 5 6 5 5 5 4 3 3 3 3 3 2 2 2 3 3 3 4 3 2 3 3 3 4 3 4 4 4 4 4 5 4 4 4 4 3 3 4 3 4 4 5 4 4 4 4 4 5 4 4 5 4 5 4 6 6 5 5 4 5 6 6 7 6 6
6 7 7 7 7 7 7 6 7 6 7 7 6 6 6 6 6 6 6 5 4 5 4 3 3 3 3 2 2 2 3 3 3 4 3 3 3 3 3 2 3 3 3 3 3 3 4 4 4 5 5 4 4 4 4 4 4 4 4 3 4 5 6 6 5 5 4 4 5 5 6 5 4 4 4 4 5 5 5 5 5 6 6 6 6
6 7 7 6 6 7 7 7 7 6 6 6 6 6 6 6 5 5 4 4 4 3 4 5 3 3 3 3 4 4 4 5 3 3 3 3 3 3 4 3 3 3 3 4 4 4 4 5 5 4 5 4 4 5 4 4 5 5 4 4 6 8 10 10 7 5 6 5 5 5 5 5 5 5 4 5 5 5 6 5 5 5 6 6 6
6 6 6 6 6 6 5 6 5 5 6 6 6 6 5 6 4 4 4 3 2 3 3 3 5 5 5 4 5 4 3 3 4 5 4 3 3 3 3 4 4 4 3 4 4 4 4 4 4 4 5 4 5 5 5 5 5 5 5 5 8 11 11 12 12 10 7 5 6 5 5 5 5 4 4 4 4 5 5 5 5 6 6 6 6
6 6 5 6 6 5 6 5 5 5 5 6 6 6 6 6 5 4 4 4 6 6 5 5 5 4 4 5 5 3 4 4 5 4 4 4 3 3 4 4 5 3 4 4 5 4 4 4 4 4 4 5 5 5 5 5 5 5 7 10 12 12 12 11 8 9 11 8 5 5 5 6 5 5 4 4 4 5 7 6 6 6 6 7 7
Wind_Direction
163 172 164 161 156 164 165 161 159 153 148 161 160 157 157 150 149 140 136 150 148 148 148 146 147 141 136 135 135 141 144 148 149 144 137 131 128 125 134 135 126 125 128 128 131 131 127 123 127 129 139 136 135 136 132 129 134 129 127 164 183 181 201 226 251 282 281 143 313 314 321 318 309 308 312 318 319 320 315 314 311 312 313 313 316
176 167 172 169 166 163 168 163 158 155 155 158 162 159 158 156 146 145 154 149 155 153 148 147 144 141 137 140 141 143 147 148 150 152 145 138 135 140 142 143 136 133 135 137 139 140 137 133 136 142 152 138 141 147 149 153 155 155 184 189 202 179 179 192 265 274 294 310 312 313 307 310 306 313 320 322 324 325 326 324 319 318 319 322 326
176 171 171 171 170 166 163 166 161 162 159 163 164 161 155 151 151 152 154 150 150 153 148 145 145 142 139 142 143 147 152 151 157 158 159 155 151 155 157 153 146 146 151 153 154 149 143 144 150 151 148 151 159 158 155 165 169 185 192 193 193 192 194 219 235 280 296 304 313 315 318 319 312 317 319 318 318 324 323 324 323 321 321 323 323
172 171 173 176 170 161 170 164 163 162 166 171 167 159 155 154 152 149 145 147 147 146 147 147 145 148 142 146 151 151 154 160 160 171 173 167 158 156 156 154 148 151 151 156 159 159 153 148 161 160 164 170 173 167 174 182 194 200 194 195 185 197 201 200 270 276 299 306 314 319 317 318 318 317 317 322 328 322 316 314 318 328 323 319 317
170 173 174 170 167 170 172 166 167 170 173 170 166 158 157 153 153 152 150 153 153 146 149 150 147 150 153 156 157 163 166 163 166 173 178 178 169 154 154 151 154 154 156 158 160 156 158 161 159 166 175 175 182 188 193 196 199 196 197 195 194 191 195 217 252 287 292 299 306 310 313 311 312 317 329 337 327 319 314 317 327 321 321 313 310
173 170 171 170 173 179 175 170 176 176 175 170 166 162 157 157 156 157 160 154 153 157 151 155 159 155 157 159 160 162 163 162 172 170 166 168 171 162 149 146 150 151 154 159 159 164 161 160 166 172 178 182 194 197 199 201 197 198 200 200 190 199 200 246 243 273 288 291 306 312 318 321 319 319 342 338 327 323 323 325 321 323 327 324 319
172 175 176 178 177 183 176 178 176 176 175 168 157 159 160 161 162 161 167 159 158 160 158 150 160 155 155 155 162 166 164 168 171 169 166 172 172 160 152 149 149 148 153 156 160 163 164 163 166 174 179 191 197 200 198 199 199 203 199 201 203 184 219 228 264 280 293 306 307 305 309 310 316 319 332 328 317 321 330 329 324 323 327 330 322
176 179 177 181 184 181 179 176 175 174 167 159 164 160 159 163 168 162 162 165 167 165 163 159 153 155 154 155 157 159 168 169 171 167 171 178 173 161 155 154 151 150 153 159 163 167 170 170 170 175 182 191 197 201 196 199 199 199 205 194 203 198 213 237 268 291 297 299 302 308 307 308 313 317 319 324 326 330 347 335 323 326 328 327 318
179 181 182 184 182 180 176 174 173 164 161 163 166 169 170 166 160 162 170 169 171 169 161 153 149 151 154 163 165 172 174 180 173 171 170 180 169 159 163 162 158 154 157 160 168 172 176 177 179 180 186 194 200 200 203 201 194 202 209 187 205 205 221 247 267 278 282 290 298 301 301 306 312 321 326 333 336 330 329 328 317 319 320 320 320
180 182 186 187 180 175 172 173 172 167 166 170 173 173 172 171 173 174 178 174 167 167 162 157 157 159 161 167 167 168 184 179 188 188 188 168 163 159 160 167 162 159 158 166 176 183 183 182 187 189 194 199 203 205 208 211 206 200 200 195 203 211 220 225 248 261 267 263 288 302 303 303 314 317 315 316 320 322 324 326 321 321 320 316 307
183 183 188 185 179 175 173 177 173 176 176 172 175 175 173 172 176 178 175 171 170 170 164 161 169 167 168 164 168 178 186 187 190 194 192 181 164 162 167 168 169 169 178 176 178 181 186 186 188 197 199 203 207 213 216 217 218 219 217 215 210 202 214 239 247 244 240 269 290 286 291 303 307 310 305 313 316 321 319 318 317 319 323 327 322
186 190 188 177 175 177 177 172 175 179 174 178 175 174 171 173 179 177 172 171 176 170 177 178 166 165 157 168 178 184 190 196 197 197 193 185 177 167 161 164 171 183 188 192 185 181 183 185 193 194 199 196 195 212 220 222 224 228 233 236 237 235 227 213 226 254 278 280 256 261 293 295 305 304 304 313 314 313 312 312 310 314 314 313 310
187 187 182 178 179 177 174 173 177 177 182 177 172 168 173 178 179 176 183 181 166 176 185 176 185 179 171 174 188 188 193 200 199 198 194 189 183 172 165 167 179 186 195 197 197 192 183 187 189 193 196 202 205 208 212 232 237 237 240 243 245 244 249 256 261 269 274 268 242 270 280 293 293 292 301 306 307 305 310 307 309 306 303 301 302
185 186 180 181 178 175 175 175 180 183 178 171 168 173 179 186 182 176 164 163 179 184 186 189 184 184 184 182 182 192 197 200 199 199 197 193 187 175 156 173 182 194 194 196 199 203 201 198 195 196 192 195 198 197 204 212 220 237 250 251 251 264 265 258 261 267 268 265 271 275 271 275 279 287 293 298 302 305 305 302 305 300 297 294 298
184 184 181 178 172 172 175 177 178 172 169 170 175 180 180 173 173 181 182 182 183 189 189 188 190 183 186 187 189 198 204 197 200 200 197 194 193 174 160 172 183 192 196 196 200 199 207 214 214 207 195 195 195 193 196 204 206 218 229 240 242 241 243 247 250 252 251 249 246 267 264 270 271 275 282 295 300 298 299 299 304 302 297 296 286
183 182 180 176 175 174 173 176 172 169 172 171 173 180 183 185 185 178 176 184 188 175 188 185 185 190 190 186 188 204 203 199 202 201 200 198 194 181 159 184 198 198 193 194 189 196 202 208 210 214 212 204 205 206 204 195 190 217 230 237 245 254 248 236 241 244 229 219 232 243 261 256 252 269 294 304 304 303 299 300 303 299 306 300 296
187 184 180 177 179 178 176 173 175 175 175 175 182 183 182 184 184 168 178 186 186 191 194 194 193 188 185 188 195 205 201 203 203 202 201 199 196 180 168 187 199 206 206 190 190 192 198 201 205 206 212 215 210 212 212 205 197 207 221 233 245 248 247 239 244 247 242 248 266 279 279 280 291 301 306 306 304 302 299 294 288 306 306 305 298
185 179 184 186 179 172 175 177 176 172 170 181 186 189 185 184 185 177 184 183 191 197 191 189 190 189 190 196 197 201 206 203 204 204 203 202 199 180 180 190 201 207 209 198 189 201 203 203 204 205 211 217 214 217 217 216 221 214 215 233 244 243 239 231 208 232 238 253 273 279 279 302 331 322 313 307 301 300 287 274 285 299 286 289 297
182 187 189 179 174 176 177 174 173 176 183 188 184 182 185 187 181 175 188 184 193 174 177 187 192 194 198 199 194 204 209 204 207 208 206 207 205 181 179 187 193 207 208 212 206 197 203 209 213 215 217 216 220 221 221 220 222 220 225 239 245 247 245 231 213 216 222 223 245 267 287 339 350 321 304 303 301 296 280 267 270 267 277 287 295
188 179 166 171 174 170 172 175 178 179 184 183 183 188 176 158 164 175 185 184 180 179 182 189 192 201 190 193 202 206 206 205 206 212 212 212 212 188 158 183 201 207 210 209 207 210 206 214 223 229 229 225 222 223 224 223 222 219 220 231 239 242 238 223 218 215 222 218 222 147 274 312 307 291 276 274 278 262 264 261 260 261 272 280 287
170 172 167 163 166 172 175 179 180 183 182 181 177 170 168 173 164 171 178 175 170 174 185 192 197 203 193 201 203 209 202 199 201 212 218 219 218 205 161 201 205 202 207 208 209 205 206 208 206 229 232 229 225 224 226 228 228 223 218 225 231 244 234 215 220 220 193 185 136 262 293 299 283 273 274 273 278 276 276 274 264 265 270 278 286
158 156 162 167 169 171 174 178 179 176 168 155 160 172 173 166 169 171 168 170 180 188 188 193 197 204 201 203 208 210 197 188 194 212 217 222 223 219 189 209 202 204 213 222 206 214 208 202 215 219 228 232 230 228 228 230 233 232 234 231 239 246 249 174 154 110 117 137 103 321 275 285 282 288 279 270 267 272 270 269 267 268 268 271 278
156 159 161 164 169 171 173 172 170 166 165 168 168 170 162 162 164 164 167 173 184 191 193 191 192 207 211 214 210 207 198 204 199 206 219 221 224 228 222 207 207 203 215 229 224 219 188 209 215 217 226 231 232 232 233 235 237 240 241 242 245 250 208 128 143 143 133 143 144 241 262 261 268 265 272 265 264 262 266 269 272 273 272 272 277
153 156 162 165 165 169 170 171 168 164 165 162 164 159 164 167 166 174 173 176 181 191 197 186 196 209 217 221 210 203 200 192 217 209 212 223 227 228 232 225 208 211 214 231 231 220 194 204 199 215 228 232 233 233 233 234 235 238 242 241 243 210 121 145 146 174 167 150 230 238 246 252 242 257 250 251 264 270 275 278 280 281 280 282 279
153 160 163 164 165 163 158 162 164 163 161 161 161 164 162 160 167 173 167 177 180 192 197 185 200 212 215 223 219 199 187 195 210 227 221 220 227 233 235 237 235 225 221 229 224 226 210 201 207 223 233 234 235 235 236 237 238 242 239 237 219 122 155 158 180 158 195 223 226 239 242 248 239 252 264 274 283 282 277 276 272 264 266 268 270
158 162 161 158 157 148 152 155 158 160 158 168 170 167 166 170 172 167 175 185 187 193 194 188 205 208 221 223 222 207 183 186 210 214 231 229 231 233 235 237 239 240 236 227 221 219 212 207 213 227 235 236 236 235 234 232 239 244 245 213 128 168 155 177 159 191 209 225 218 235 242 244 244 245 268 275 272 270 275 280 290 289 293 289 297
151 150 151 146 143 150 151 157 151 148 153 149 151 154 156 165 164 168 179 184 187 194 193 193 203 208 220 225 216 199 200 198 200 202 204 219 228 230 236 243 246 247 250 244 223 213 210 207 216 226 227 227 229 231 234 229 231 235 182 136 165 143 173 158 197 204 241 226 231 228 242 249 270 269 267 269 271 263 251 262 274 283 293 293 294
149 149 145 143 148 153 150 145 147 150 158 157 155 153 163 168 176 182 184 185 184 196 196 200 205 208 215 214 208 204 216 204 202 197 203 206 214 215 226 235 232 231 238 238 227 196 203 220 229 236 229 229 231 232 231 199 197 182 175 156 151 162 161 179 157 195 218 225 238 255 256 247 253 252 253 265 266 269 250 257 276 286 289 296 299
125 128 134 133 139 138 138 151 154 152 154 164 158 161 171 182 189 202 211 190 191 186 194 206 210 212 203 199 194 217 214 220 225 206 205 201 200 196 211 213 219 224 231 234 237 242 217 205 204 216 219 222 222 225 206 189 195 191 178 167 138 158 164 165 197 204 213 183 221 226 246 233 247 236 262 269 263 266 238 274 277 270 280 278 276
125 132 133 133 132 133 136 145 147 151 156 162 147 81 10 181 201 189 196 197 211 220 193 203 203 192 202 217 196 204 214 222 211 208 213 216 219 216 216 215 217 219 226 231 229 230 229 220 216 210 214 216 218 219 208 195 198 196 211 199 184 177 188 197 196 210 184 201 213 225 230 229 241 238 244 255 267 257 258 275 283 289 287 284 287
124 129 136 146 155 149 145 143 145 141 147 150 154 152 109 15 226 206 184 189 206 217 220 223 209 194 190 217 233 239 249 246 225 217 219 221 223 227 229 230 228 227 225 223 232 228 219 224 226 216 220 221 226 227 214 210 213 207 208 209 202 202 208 204 214 191 183 199 216 219 229 222 232 226 238 241 252 262 259 249 258 275 272 279 283
146 155 150 145 142 143 140 139 140 138 139 143 155 157 161 168 284 241 216 211 215 219 227 229 227 225 217 212 194 258 259 255 251 249 244 239 237 237 237 236 234 230 229 221 221 231 228 222 226 227 223 230 229 222 221 222 216 211 216 221 223 199 208 216 209 179 195 206 216 221 217 221 221 222 224 242 245 259 257 268 263 272 284 279 272
136 141 143 142 138 137 139 144 149 149 152 152 158 161 166 177 186 223 243 226 223 230 232 234 235 236 236 235 223 201 210 231 248 257 254 248 243 242 241 240 236 232 226 224 220 226 229 235 232 228 223 232 233 229 230 222 218 219 219 227 232 209 204 216 169 186 204 214 211 221 217 215 219 220 231 235 236 248 251 262 264 270 273 277 277
140 147 154 152 146 149 150 151 152 158 156 158 161 169 182 181 187 168 181 233 273 245 234 233 237 242 247 246 246 249 240 238 250 258 261 254 247 242 241 242 241 234 224 219 224 218 217 228 236 235 231 227 229 222 224 226 223 222 228 224 217 214 198 165 184 202 198 213 217 217 218 222 216 226 240 233 237 243 249 253 256 262 269 272 275
110 111 126 135 142 148 150 148 149 145 148 156 160 167 174 172 162 164 174 179 192 206 231 252 234 228 233 258 272 256 247 242 243 250 259 256 246 239 239 238 233 239 235 223 211 221 212 221 226 228 225 225 220 211 217 223 227 225 227 216 212 194 177 183 206 206 211 215 220 229 226 227 226 225 232 237 237 237 242 247 250 250 261 268 270
109 121 128 126 126 133 141 141 147 151 161 157 155 152 146 154 162 170 151 143 152 156 294 291 295 334 323 285 258 249 252 252 241 240 244 246 243 236 233 235 217 215 238 264 271 253 233 234 234 236 226 229 226 226 227 222 222 222 216 208 195 199 194 192 196 196 212 216 221 224 229 231 229 228 229 230 227 236 247 240 244 255 257 259 266
123 127 128 126 129 126 120 123 134 142 142 142 140 140 141 144 134 122 130 131 126 112 178 297 4 340 20 38 21 352 352 297 47 79 253 290 307 283 244 238 239 233 228 235 259 278 277 306 275 260 229 227 231 224 218 223 213 202 199 202 204 196 201 203 208 207 199 209 221 219 229 227 215 214 218 229 238 237 242 241 247 248 251 257 265
126 135 139 136 128 126 122 131 138 137 129 138 133 138 133 132 131 131 139 128 139 149 142 31 133 168 182 268 27 37 9 23 27 32 36 32 34 35 40 51 50 59 55 37 50 41 19 5 12 347 283 177 207 194 202 210 205 199 196 205 201 213 212 214 224 206 200 212 224 217 217 224 221 218 219 222 233 241 245 243 244 252 256 261 260
101 116 124 130 131 132 136 133 139 131 130 128 134 133 135 129 126 127 126 133 135 129 131 136 144 166 124 15 346 343 31 43 60 309 54 78 78 72 81 65 67 47 10 339 357 348 349 328 353 25 37 255 195 204 196 211 197 211 210 204 214 212 222 223 210 212 208 217 223 223 221 228 224 217 219 226 235 238 245 245 247 246 253 260 263
121 122 130 129 119 128 130 136 135 135 140 136 133 130 127 139 151 151 145 140 149 151 152 159 166 177 224 64 88 72 126 111 97 92 16 20 80 62 62 48 32 32 354 340 351 344 319 319 337 329 319 289 238 238 238 224 219 224 203 211 211 225 225 227 231 223 229 227 230 234 231 232 229 219 225 226 235 241 241 244 246 244 245 252 262
122 127 129 128 131 123 120 127 137 144 141 138 143 142 146 143 142 134 139 143 145 144 145 153 167 231 232 209 190 168 152 180 164 126 117 124 55 69 68 80 122 54 120 299 266 295 291 287 312 300 310 297 294 249 237 229 221 202 208 218 213 229 224 225 221 229 230 232 233 233 235 233 229 224 239 237 235 237 237 241 243 243 245 249 256
132 134 131 129 128 128 132 132 135 132 130 132 136 142 140 137 135 138 143 146 147 147 132 122 152 227 286 181 242 173 128 112 125 141 140 140 140 156 139 132 124 176 192 217 214 248 256 247 249 243 255 256 247 247 217 219 222 207 209 209 207 209 216 227 221 226 222 229 229 230 231 229 231 222 237 243 242 238 240 239 242 243 246 252 254
130 128 129 129 132 141 142 141 134 128 127 125 128 126 129 130 138 141 139 142 147 142 140 139 154 117 339 48 81 82 83 115 129 133 140 142 136 168 159 163 152 186 214 239 240 215 220 227 241 235 230 242 232 218 214 221 204 215 205 212 209 212 220 229 227 227 223 227 233 237 231 230 238 239 237 237 239 238 237 239 241 242 242 247 251
125 123 118 118 117 109 116 127 124 126 127 127 125 128 130 129 132 132 137 137 140 137 148 160 165 149 168 26 66 82 104 98 116 132 160 173 210 240 239 235 264 293 286 279 266 210 218 235 251 262 251 249 244 239 229 232 207 211 216 213 214 223 226 223 227 224 220 226 232 232 229 229 230 239 239 240 236 238 242 239 243 246 251 252 254
128 126 128 120 118 117 116 115 123 124 122 119 117 122 129 136 137 138 133 136 134 139 152 164 167 165 152 128 118 128 149 159 169 175 203 214 230 247 251 274 266 269 270 268 261 231 231 235 247 255 271 253 235 234 231 227 219 219 212 213 219 230 237 226 225 220 220 226 237 237 235 228 230 235 240 240 234 236 241 238 240 245 246 245 248
129 129 126 126 122 121 122 126 129 131 135 138 136 133 133 129 135 136 140 144 152 157 165 168 168 166 163 165 169 157 173 172 198 202 221 238 235 246 228 228 233 229 236 236 252 246 240 227 228 230 243 247 247 237 235 231 229 226 222 222 227 238 244 239 227 223 224 221 227 231 233 235 235 235 238 243 244 241 241 243 240 238 243 252 253
126 126 128 128 130 132 133 135 130 136 135 137 138 140 143 144 142 141 148 154 158 162 161 170 164 171 173 177 177 197 184 189 202 199 211 220 225 236 245 242 248 255 246 240 227 231 235 236 233 232 242 248 251 253 248 230 220 224 228 226 230 236 240 234 228 225 229 224 221 214 231 235 242 243 245 247 249 240 234 237 232 235 239 244 247
125 124 125 129 130 132 141 140 138 136 137 141 140 140 142 143 145 148 154 157 155 157 160 162 170 174 165 198 196 190 198 202 209 211 212 221 232 230 235 241 246 252 260 259 244 230 229 232 232 234 241 247 250 249 246 237 239 226 232 228 227 235 232 230 234 232 223 223 220 222 227 230 236 237 239 237 243 244 243 244 244 244 241 240 246
124 125 131 135 139 143 147 148 147 149 151 145 137 140 147 151 157 158 158 161 162 165 164 173 184 189 198 206 200 206 206 208 216 233 234 237 236 239 235 239 245 251 252 258 257 247 239 238 239 233 237 242 246 248 251 245 241 239 236 238 234 235 236 232 233 229 214 208 219 222 225 226 232 235 234 238 242 243 243 246 245 249 249 249 249
118 125 127 133 131 137 129 129 131 133 136 144 148 155 157 152 154 158 159 151 155 166 182 184 192 200 199 207 207 212 204 214 226 228 234 235 231 235 237 240 247 248 245 255 259 255 249 244 243 247 243 244 246 246 245 241 244 242 243 240 247 245 244 242 241 232 217 216 214 210 211 220 224 227 227 234 238 240 242 241 241 244 246 243 246
117 120 123 127 131 130 128 128 134 144 151 154 156 155 159 164 169 164 164 173 184 197 196 202 208 210 213 216 212 210 217 224 226 226 231 235 236 229 233 236 242 247 248 249 256 255 249 247 245 244 244 242 244 246 244 244 243 247 249 252 254 255 253 250 245 241 237 227 205 201 203 214 218 224 224 224 223 229 235 240 238 238 245 248 249